Location: Ickleton
(52.0667°N, 0.1833°E)
Time: 14:13:58
(UTC+00:00)

Daily predictions for brighter satellites

Satellite Brightness Start Highest point End
(mag) Time Altitude Azimuth Time Altitude Azimuth Time Altitude Azimuth
BREEZE-M DEB (TANK) 4.4 19:57:54 10° W 20:02:38 68° S 20:21:16 10° ESE
MetOp-B 4.3 20:16:35 10° SSE 20:21:51 63° ENE 20:27:10 10° N
ERS-2 3.6 20:19:04 10° N 20:22:32 41° WNW 20:25:58 10° SW
Cosmos 1602 3.7 20:20:32 10° N 20:24:24 77° ENE 20:28:17 10° SSE
BREEZE-M DEB (TANK) 1.4 20:23:01 10° WSW 20:25:30 46° S 20:27:29 10° ESE
Cosmos 1606 4.0 20:22:07 10° SSW 20:25:45 43° WNW 20:29:25 10° N
Cosmos 2278 Rocket 3.3 20:21:22 10° SSE 20:25:50 25° ESE 20:30:19 10° NE
USA 305 2.9 20:22:17 10° WNW 20:26:35 87° SSW 20:30:52 10° ESE
Spot 2 Rocket 4.1 20:22:47 10° SE 20:27:32 44° ENE 20:32:19 10° N
Cosmos 1782 3.1 20:24:46 10° SSE 20:28:37 47° E 20:32:27 10° NNE
Landsat 7 3.9 20:24:22 10° SSE 20:29:07 76° ENE 20:33:53 10° NNW
Cosmos 1844 Rocket 3.0 20:24:12 10° SW 20:29:46 76° WNW 20:35:24 10° NNE
IGS 5A 3.5 20:25:53 10° SSE 20:30:01 85° ENE 20:34:12 10° NNW
Cosmos 1242 Rocket 2.4 20:27:34 10° S 20:31:07 77° E 20:34:40 10° NNE
Gbstr 26 Del rocket 4.4 20:23:10 10° W 20:31:11 88° S 20:38:04 10° E
ERS-1 Rocket 3.9 20:30:41 10° SE 20:35:13 36° ENE 20:39:48 10° N
CZ-4C R/B 3.0 20:28:26 10° NW 20:35:26 88° SW 20:43:42 10° SE
Cosmos 1633 Rocket 3.1 20:33:46 10° N 20:38:12 89° E 20:42:37 10° S
BREEZE M DEB (TANK) 4.4 20:34:49 10° WSW 20:39:01 71° SSE 20:54:12 10° E
Akebono 3.8 20:39:35 10° NNW 20:42:06 90° SSE 20:43:58 12° SSE
ATLAS 5 CENTAUR R/B 3.3 20:39:34 10° NW 20:44:46 41° SW 20:50:48 10° SSE
deb Kosmos-1763 4.4 20:41:24 10° NNW 20:44:52 49° ENE 20:47:57 12° SE
USA 306 2.9 20:41:38 10° WNW 20:45:54 75° SSW 20:49:58 11° ESE
Cosmos 1470 Rocket 3.6 20:45:59 10° N 20:50:30 72° ENE 20:54:59 10° SSE
Cosmos 1328 Rocket 3.6 20:46:41 10° S 20:51:04 66° E 20:55:28 10° NNE
Cosmos 1812 3.3 20:47:30 10° SSE 20:51:05 38° E 20:54:42 10° NNE
Cosmos 1503 Rocket 4.1 20:46:09 10° SSW 20:51:20 82° WNW 20:56:36 10° NNE
Cosmos 1777 Rocket 4.2 20:47:41 10° S 20:52:39 48° ESE 20:57:39 10° NE
ARIANE 5 R/B 2.7 20:52:22 11° SSE 20:56:26 66° ENE 21:00:45 10° N
Cosmos 1666 3.0 20:53:53 10° N 20:57:32 48° ENE 21:00:28 14° SSE
CRYOSAT 2 4.4 20:54:52 10° S 20:59:46 87° W 21:04:42 10° N
Cosmos 1844 4.4 20:54:23 10° SW 21:00:02 59° NW 21:05:38 10° NNE
CARTOSAT-1 3.7 20:56:42 12° SSE 21:00:37 66° ENE 21:04:55 10° N
Cosmos 1833 Rocket 2.8 20:56:17 10° NNW 21:01:58 82° WSW 21:07:04 13° SSE
Meteor 1-5 Rocket 4.1 20:57:59 10° N 21:03:26 78° ENE 21:08:22 12° SSE
Cosmos 1933 Rocket 3.6 21:00:24 10° N 21:04:45 67° ENE 21:08:26 14° SSE
BREEZE-M R/B 2.1 21:03:15 10° WSW 21:05:36 40° SSE 21:07:49 12° E
Cosmos 1536 4.0 21:04:22 10° N 21:07:57 29° ENE 21:10:33 15° ESE
Cosmos 1437 2.4 21:05:37 10° SSW 21:08:28 85° WNW 21:11:19 10° NNE
Cosmos 2184 Rocket 4.1 21:06:01 10° N 21:12:15 66° ENE 21:17:33 14° SSE
USA 307 3.1 21:08:16 10° WNW 21:12:29 59° SSW 21:15:38 17° SE
CZ-2C R/B 3.7 21:09:35 10° NNE 21:14:06 86° WNW 21:18:39 10° SSW
Cosmos 2074 Rocket 4.1 21:10:26 10° N 21:16:46 73° ENE 21:22:14 14° SSE
NOSS 3-4 (A) 3.9 21:10:51 10° NW 21:17:42 88° SW 21:24:06 16° SE
NOSS 3-4 (C) 3.9 21:10:58 10° NW 21:17:49 89° SW 21:24:13 16° SE
JB-3 4.4 21:14:55 10° NNE 21:18:47 57° E 21:21:59 14° S
USA 245 3.3 21:20:53 15° SSW 21:22:23 33° W 21:24:31 10° NNW
SJ 16-02 1.6 21:19:29 11° S 21:23:33 49° ESE 21:27:51 10° NNE
Nadezhda 1 Rocket 4.5 21:19:52 15° SSE 21:24:44 44° E 21:30:35 10° NNE
USA 308 3.3 21:21:53 10° WNW 21:26:04 51° SSW 21:28:43 21° SE
Cosmos 1500 4.3 21:23:52 10° NNW 21:27:25 40° W 21:30:56 10° SSW
SPOT 1/Viking Rocket 4.3 21:23:49 10° S 21:28:52 51° W 21:33:57 10° NNW
NOSS 3-3 (A) 4.0 21:23:12 10° SW 21:29:05 88° SE 21:35:56 10° NE
NOSS 3-3 (C) 4.0 21:23:18 10° SW 21:29:12 87° SE 21:36:02 10° NE
ATLAS 2AS CENTAUR R/B 2.9 21:23:44 10° NW 21:31:18 76° NE 21:37:04 16° SE
Cosmos 1544 3.9 21:31:59 10° N 21:35:21 36° ENE 21:37:03 23° SE
CREW DRAGON DEMO-1 DEB 3.8 21:33:21 10° W 21:35:36 25° SSW 21:35:56 24° SSW
Iridium 4 Rocket 3.8 21:30:58 12° S 21:36:19 83° E 21:42:17 10° N
Terra 1.8 21:33:01 19° SSE 21:36:23 77° ENE 21:41:11 10° NNW
USA 215 3.8 21:31:28 10° E 21:37:51 60° N 21:44:17 10° WNW
ERBS 3.2 21:37:13 10° WNW 21:40:25 45° NNE 21:43:15 12° E
Cosmos 2082 Rocket 2.2 21:36:18 10° NNW 21:41:56 77° WSW 21:45:50 21° SSE
SPOT 5 3.2 21:38:33 17° S 21:42:33 74° WSW 21:47:53 10° NNW
Cosmos 158 Rocket 3.9 21:38:42 10° NNW 21:43:35 72° WSW 21:46:51 21° SSE
Cosmos 2112 Rocket 4.3 21:39:21 10° NNW 21:44:41 62° ENE 21:48:11 21° SE
Resurs 01 Rocket 4.0 21:42:25 10° SW 21:45:34 19° W 21:48:43 10° NW
Cosmos 2084 3.7 21:41:59 10° SW 21:46:09 70° NW 21:50:27 10° NE
COSMOS 2406 4.1 21:43:03 10° NW 21:48:18 40° WSW 21:52:38 15° S
Cosmos 44 3.7 21:42:49 10° NW 21:48:19 72° NE 21:51:59 20° SE
Cosmos 2228 Rocket 3.1 21:45:34 21° S 21:48:29 65° E 21:52:57 10° NNE
Cosmos 2084 Rocket 3.8 21:52:15 10° NW 21:56:26 61° NE 21:59:14 21° ESE
Cosmos 1271 Rocket 2.9 21:54:20 16° SSW 21:57:26 78° WNW 22:01:28 10° N
Cosmos 2341 Rocket 4.3 21:53:47 10° N 22:00:07 57° ENE 22:04:08 23° SE
BREEZE-M DEB (TANK) 3.1 21:52:18 10° W 22:00:42 88° N 22:03:25 10° E
Meteor 1-27 Rocket 3.8 21:58:45 19° S 22:03:07 73° E 22:09:02 10° NNE
USA 305 4.0 22:02:29 10° W 22:06:12 29° SW 22:07:27 25° S
Cosmos 2278 Rocket 2.5 22:03:46 10° SW 22:09:25 70° WNW 22:15:06 10° NNE
SL-24 R/B - RUBIN 2 3.9 22:04:40 10° NW 22:10:21 85° SW 22:13:07 28° SE
Cosmos 1937 Rocket 4.2 22:09:32 26° SE 22:11:23 35° ESE 22:16:03 10° NE
Cosmos 1680 Rocket 3.6 22:06:32 10° NNW 22:11:53 77° WSW 22:14:52 27° SSE
Cosmos 1869 Rocket 3.9 22:09:25 10° NNW 22:13:41 58° W 22:16:05 24° SSW
ERS-1 Rocket 4.0 22:10:19 16° SSW 22:13:59 40° W 22:18:44 10° NNW
Cosmos 2218 Rocket 4.5 22:08:28 10° N 22:14:34 50° ENE 22:18:16 24° SE
Cosmos 1943 Rocket 3.0 22:13:55 26° SE 22:15:55 33° ESE 22:20:53 10° NE
Cosmos 2369 Rocket 3.6 22:17:10 19° ESE 22:18:21 20° E 22:22:22 10° NE
Gbstr 26 Del rocket 4.1 22:11:03 10° W 22:18:38 76° SSW 22:23:48 16° ESE
Cosmos 1238 Rocket 3.9 22:15:54 10° N 22:22:12 66° ENE 22:25:12 28° SSE
CZ-4C R/B 4.2 22:17:28 10° WNW 22:23:37 29° WSW 22:28:58 15° SSW
USA 306 4.3 22:22:00 10° W 22:25:22 23° SW 22:26:02 22° SSW
Cosmos 1340 Rocket 3.1 22:25:22 10° NNW 22:29:25 64° W 22:31:03 33° SSW
Okean 1 3.7 22:29:36 37° SE 22:30:38 47° E 22:34:29 10° NNE
Cosmos 1818 3.5 22:25:47 10° NW 22:31:19 87° SW 22:34:12 29° SE
Cosmos 1707 Rocket 3.5 22:32:59 33° S 22:34:53 82° E 22:39:20 10° NNE
DNEPR-1 R/B 4.5 22:34:46 30° S 22:36:55 42° ESE 22:41:36 10° NE
SL-8 Rocket 4.0 22:31:42 10° N 22:38:04 80° ENE 22:41:32 29° SSE
ALOS 2 3.3 22:41:06 28° ESE 22:42:53 44° ENE 22:47:05 10° N
Cosmos 1536 4.2 22:40:46 10° NNW 22:44:21 31° W 22:46:16 21° SW
Cosmos 1743 3.4 22:44:32 10° NNW 22:48:15 47° W 22:49:32 33° SW
Meteor 2-4 Rocket 4.5 22:47:04 28° SE 22:49:19 39° E 22:54:29 10° NNE
Cosmos 1898 Rocket 3.5 22:47:29 24° SSW 22:50:44 90° ESE 22:56:07 10° NNE
SL-27 R/B 4.2 22:49:57 10° N 22:52:39 22° NE 22:53:51 19° E
Cosmos 1975 2.7 22:55:28 10° N 22:59:29 80° E 23:00:28 49° SSE
RESURS DK-1 3.1 22:57:38 10° NNW 23:01:43 48° NE 23:03:31 29° ESE
SJ 16-02 3.4 22:58:37 10° WSW 23:02:22 26° NW 23:06:09 10° N
Cosmos 1733 Rocket 3.4 22:59:13 10° NNW 23:03:27 53° W 23:04:54 35° SSW
Cosmos 990 Rocket 4.4 23:00:01 17° SW 23:04:01 62° WNW 23:09:16 10° NNE
Cosmos 864 Rocket 4.4 22:59:17 10° N 23:05:28 84° W 23:08:29 32° S
SeaSat 1 4.2 23:04:52 10° ENE 23:08:03 17° ESE 23:08:32 17° ESE
Cosmos 1461 3.5 23:07:22 41° SSE 23:08:10 46° ESE 23:12:36 10° NE
Cosmos 1959 Rocket 4.5 23:01:57 10° NNW 23:08:14 79° W 23:11:16 32° S
Cosmos 2297 3.7 23:04:38 23° SSW 23:08:22 86° WNW 23:14:05 10° NNE
Cosmos 372 Rocket 4.1 23:07:02 38° SSE 23:08:43 57° ESE 23:13:44 10° NNE
Cosmos 2242 Rocket 4.2 23:09:01 36° SE 23:10:05 42° E 23:14:19 10° NNE
Cosmos 1900 4.3 23:09:19 25° SW 23:12:18 87° SE 23:17:23 10° NE
Terra 4.0 23:11:54 11° SW 23:14:43 17° W 23:17:49 10° NW
ERBS 2.9 23:13:21 10° WNW 23:16:00 42° WSW 23:16:00 42° WSW
Cosmos 494 Rocket 4.4 23:12:23 10° NNW 23:17:32 56° ENE 23:20:07 28° SE
Cosmos 1908 Rocket 3.5 23:13:51 10° N 23:18:23 87° E 23:19:43 46° SSE
Meteor 1-18 Rocket 4.2 23:16:27 33° SSW 23:19:07 89° WNW 23:24:45 10° NNE
USA 215 3.2 23:14:09 10° ESE 23:20:43 89° NNE 23:27:18 10° WNW
ATLAS 2AS CENTAUR R/B 3.6 23:15:18 10° NW 23:21:44 34° WSW 23:24:29 26° SSW
MTI 4.4 23:19:22 10° NNE 23:21:54 41° ENE 23:21:54 41° ENE
Cosmos 2082 Rocket 4.3 23:22:04 10° WNW 23:25:05 15° W 23:27:41 11° SW
Cosmos 1867 4.2 23:25:56 34° SE 23:27:00 37° ESE 23:32:01 10° NE
Cosmos 44 Rocket 4.1 23:22:17 10° NW 23:27:27 53° NE 23:31:23 17° ESE
Cosmos 1125 Rocket 4.5 23:26:50 28° SE 23:28:05 32° ESE 23:32:40 10° NE
SAR-Lupe-2 3.5 23:29:03 10° NNE 23:32:39 66° ESE 23:32:57 62° SE
Cosmos 2181 Rocket 4.2 23:29:25 27° SSW 23:32:55 64° WNW 23:39:02 10° N
Cosmos 1378 3.9 23:34:53 35° ESE 23:35:13 36° E 23:38:40 10° NNE
Cosmos 2344 4.3 23:28:32 10° NW 23:37:23 86° NE 23:49:43 10° SE
Cosmos 2366 rocket 4.5 23:31:42 10° NNW 23:37:38 51° W 23:40:37 28° SSW
ATLAS CENTAUR R/B 2.8 23:38:29 21° E 23:38:29 21° E 23:40:43 10° ENE
Cosmos 1821 Rocket 4.0 23:31:53 10° N 23:38:21 83° E 23:41:25 33° SSE
Cosmos 1934 Rocket 4.5 23:32:52 10° N 23:38:52 52° ENE 23:42:10 26° SE
USA 281 4.4 23:38:22 10° ESE 23:44:19 38° NE 23:50:19 10° NNW
Cosmos 1703 Rocket 3.5 23:48:52 49° SSW 23:50:02 87° W 23:54:29 10° N
Cosmos 1782 Rocket 3.5 23:45:43 10° NNW 23:50:13 81° W 23:51:22 49° S
Okean 3 3.8 23:50:46 44° SE 23:51:41 53° E 23:55:49 10° NNE
NOSS 2-1 (C) 4.2 23:48:33 10° NW 23:53:01 70° NE 23:58:29 14° SE
Cosmos 1937 Rocket 4.4 23:49:39 17° WSW 23:53:16 43° NW 23:58:14 10° NNE
Lacrosse 5 3.8 23:54:51 14° ESE 23:54:51 14° ESE 23:57:02 10° E
